Date String (YYYY-MM-DD hh:mm:ss) UTC,Instrument flags,Ambient pressure (hPa),Sample flow (lpm),Bypass flow (lpm),Sample temperature (°C),Ambient temperature (°C),ASC tube jacket temperature (°C),LED temperature (°C),Box temperature (°C),Sample RH (%),Span deviation,Mass concentration (μg/m³),Mass concentration (μg/m³),Mass concentration (μg/m³)
DateTimeUTC,F1_M11,P_M11,Q1_M11,Q2_M11,T1_M11,T2_M11,T3_M11,T4_M11,T5_M11,U1_M11,ZSPAN_M11,X0_M11,X2_M11,X1_M11
2022-05-15 11:00:00,,0829.0,5.01,0.00,29.6,28.6,00.0,38.6,31.3,11.0,0000.0,0008.18,0003.38,0001.94
2022-05-15 11:01:00,,0829.0,5.00,0.00,29.6,28.6,00.0,38.6,31.3,11.0,0000.0,0008.00,0003.33,0001.94
2022-05-15 11:02:00,,0829.0,5.00,0.00,29.6,28.6,00.0,38.6,31.3,11.0,0000.0,0008.12,0003.30,0001.94
2022-05-15 11:03:00,,0828.9,5.00,0.00,29.6,28.6,00.0,38.6,31.3,10.9,0000.0,0008.26,0003.31,0001.93
2022-05-15 11:04:00,,0829.1,4.99,0.00,29.6,28.6,00.0,38.6,31.3,10.9,0000.0,0008.29,0003.32,0001.92
2022-05-15 11:05:00,,0829.3,5.01,0.00,29.6,28.6,00.0,38.6,31.3,11.0,0000.0,0008.62,0003.31,0001.91
2022-05-15 11:06:00,,0829.3,5.00,0.00,29.6,28.7,00.0,38.6,31.3,11.0,0000.0,0007.93,0003.28,0001.90
2022-05-15 11:07:00,,0829.2,5.00,0.00,29.6,28.7,00.0,38.6,31.3,11.0,0000.0,0008.54,0003.33,0001.91
2022-05-15 11:08:00,,0828.9,4.99,0.00,29.6,28.6,00.0,38.6,31.3,11.0,0000.0,0008.79,0003.34,0001.92
2022-05-15 11:09:00,,0828.9,5.00,0.00,29.6,28.7,00.0,38.6,31.4,11.1,0000.0,0008.70,0003.34,0001.92
2022-05-15 11:10:00,,0828.9,5.01,0.00,29.6,28.7,00.0,38.6,31.3,11.1,0000.0,0008.78,0003.41,0001.94
2022-05-15 11:11:00,,0829.0,4.99,0.00,29.6,28.7,00.0,38.6,31.3,11.2,0000.0,0009.01,0003.49,0001.96
2022-05-15 11:12:00,,0829.0,5.00,0.00,29.6,28.7,00.0,38.6,31.3,11.2,0000.0,0009.11,0003.51,0001.97
2022-05-15 11:13:00,,0829.0,5.01,0.00,29.6,28.7,00.0,38.6,31.3,11.1,0000.0,0009.30,0003.56,0001.99
2022-05-15 11:14:00,,0829.0,4.99,0.00,29.6,28.7,00.0,38.6,31.3,11.1,0000.0,0009.11,0003.54,0002.00
2022-05-15 11:15:00,,0829.1,4.99,0.00,29.6,28.7,00.0,38.6,31.3,11.1,0000.0,0009.06,0003.54,0002.01
2022-05-15 11:16:00,,0829.1,4.99,0.00,29.6,28.6,00.0,38.6,31.3,11.1,0000.0,0009.15,0003.58,0002.02
2022-05-15 11:17:00,,0829.1,4.99,0.00,29.6,28.6,00.0,38.6,31.3,11.2,0000.0,0009.18,0003.63,0002.04
2022-05-15 11:18:00,,0829.1,5.00,0.00,29.6,28.6,00.0,38.6,31.3,11.1,0000.0,0009.95,0003.67,0002.06
2022-05-15 11:19:00,,0829.1,5.01,0.00,29.6,28.6,00.0,38.6,31.3,11.2,0000.0,0010.44,0003.68,0002.08
2022-05-15 11:20:00,,0829.0,5.00,0.00,29.6,28.6,00.0,38.6,31.3,11.2,0000.0,0011.40,0003.67,0002.06
2022-05-15 11:21:00,,0829.1,5.00,0.00,29.6,28.6,00.0,38.6,31.3,11.3,0000.0,0011.52,0003.65,0002.06
2022-05-15 11:22:00,,0829.1,5.00,0.00,29.6,28.6,00.0,38.6,31.4,11.2,0000.0,0011.50,0003.59,0002.05
2022-05-15 11:23:00,,0829.1,5.00,0.00,29.6,28.6,00.0,38.6,31.3,11.1,0000.0,0011.57,0003.59,0002.05
2022-05-15 11:24:00,,0829.0,5.01,0.00,29.6,28.6,00.0,38.6,31.3,11.2,0000.0,0011.76,0003.59,0002.05
2022-05-15 11:25:00,,0829.0,5.00,0.00,29.6,28.6,00.0,38.6,31.3,11.2,0000.0,0012.43,0003.59,0002.06
2022-05-15 11:26:00,,0829.0,4.99,0.00,29.6,28.6,00.0,38.6,31.3,11.2,0000.0,0012.34,0003.54,0002.04
2022-05-15 11:27:00,,0829.1,5.01,0.00,29.5,28.6,00.0,38.6,31.2,11.3,0000.0,0011.98,0003.50,0002.05
2022-05-15 11:28:00,,0829.1,5.01,0.00,29.5,28.6,00.0,38.6,31.3,11.3,0000.0,0011.73,0003.47,0002.04
2022-05-15 11:29:00,,0829.0,5.01,0.00,29.5,28.6,00.0,38.6,31.3,11.4,0000.0,0010.44,0003.42,0002.03
2022-05-15 11:30:00,,0829.1,4.99,0.00,29.5,28.7,00.0,38.5,31.3,11.4,0000.0,0009.60,0003.42,0002.05
2022-05-15 11:31:00,,0829.2,5.01,0.00,29.5,28.7,00.0,38.6,31.3,11.5,0000.0,0008.83,0003.45,0002.06
2022-05-15 11:32:00,,0829.2,5.00,0.00,29.5,28.6,00.0,38.5,31.2,11.5,0000.0,0009.08,0003.50,0002.09
2022-05-15 11:33:00,,0829.2,5.00,0.00,29.6,28.6,00.0,38.5,31.3,11.6,0000.0,0010.02,0003.54,0002.12
2022-05-15 11:34:00,,0829.2,5.01,0.00,29.6,28.6,00.0,38.5,31.3,11.6,0000.0,0010.21,0003.57,0002.14
2022-05-15 11:35:00,,0829.2,5.00,0.00,29.6,28.6,00.0,38.5,31.2,11.5,0000.0,0010.28,0003.59,0002.13
2022-05-15 11:36:00,,0829.2,4.99,0.00,29.6,28.6,00.0,38.5,31.2,11.6,0000.0,0010.40,0003.63,0002.12
2022-05-15 11:37:00,,0829.2,5.00,0.00,29.6,28.6,00.0,38.5,31.2,11.4,0000.0,0010.43,0003.65,0002.12
2022-05-15 11:38:00,,0829.2,5.01,0.00,29.6,28.6,00.0,38.5,31.3,11.4,0000.0,0010.64,0003.68,0002.12
2022-05-15 11:39:00,,0829.2,4.99,0.00,29.5,28.6,00.0,38.5,31.3,11.4,0000.0,0010.89,0003.69,0002.12
2022-05-15 11:40:00,,0829.2,5.00,0.00,29.5,28.6,00.0,38.5,31.3,11.4,0000.0,0010.95,0003.69,0002.10
2022-05-15 11:41:00,,0829.3,5.01,0.00,29.6,28.6,00.0,38.5,31.3,11.4,0000.0,0011.03,0003.68,0002.07
2022-05-15 11:42:00,,0829.2,4.99,0.00,29.6,28.6,00.0,38.5,31.3,11.5,0000.0,0011.33,0003.64,0002.05
2022-05-15 11:43:00,,0829.2,5.00,0.00,29.6,28.6,00.0,38.5,31.3,11.6,0000.0,0011.12,0003.60,0002.03
2022-05-15 11:44:00,,0829.2,4.99,0.00,29.6,28.6,00.0,38.5,31.3,11.5,0000.0,0010.06,0003.56,0002.01
2022-05-15 11:45:00,,0829.2,5.00,0.00,29.6,28.6,00.0,38.5,31.3,11.5,0000.0,0009.90,0003.52,0001.99
2022-05-15 11:46:00,,0829.2,5.01,0.00,29.6,28.7,00.0,38.5,31.3,11.6,0000.0,0009.89,0003.51,0001.98
2022-05-15 11:47:00,,0829.3,4.99,0.00,29.6,28.7,00.0,38.5,31.3,11.6,0000.0,0008.63,0003.46,0002.00
2022-05-15 11:48:00,,0829.4,5.00,0.00,29.6,28.6,00.0,38.5,31.2,11.7,0000.0,0008.80,0003.51,0002.03
2022-05-15 11:49:00,,0829.5,5.02,0.00,29.6,28.6,00.0,38.5,31.2,11.6,0000.0,0008.71,0003.50,0002.05
2022-05-15 11:50:00,,0829.3,5.00,0.00,29.5,28.5,00.0,38.5,31.3,11.4,0000.0,0008.61,0003.53,0002.06
2022-05-15 11:51:00,,0829.2,5.01,0.00,29.5,28.5,00.0,38.5,31.2,11.5,0000.0,0008.66,0003.56,0002.05
2022-05-15 11:52:00,,0829.2,5.00,0.00,29.5,28.5,00.0,38.5,31.2,11.4,0000.0,0008.54,0003.55,0002.04
2022-05-15 11:53:00,,0829.3,4.99,0.00,29.5,28.5,00.0,38.5,31.2,11.6,0000.0,0008.14,0003.58,0002.06
2022-05-15 11:54:00,,0829.3,5.00,0.00,29.5,28.5,00.0,38.5,31.2,11.4,0000.0,0008.01,0003.56,0002.06
2022-05-15 11:55:00,,0829.3,5.01,0.00,29.5,28.5,00.0,38.5,31.2,11.4,0000.0,0008.06,0003.52,0002.04
2022-05-15 11:56:00,,0829.3,5.00,0.00,29.5,28.5,00.0,38.5,31.2,11.4,0000.0,0008.20,0003.52,0002.02
2022-05-15 11:57:00,,0829.4,5.00,0.00,29.5,28.5,00.0,38.5,31.2,11.4,0000.0,0008.16,0003.48,0002.02
2022-05-15 11:58:00,,0829.4,5.01,0.00,29.5,28.5,00.0,38.5,31.2,11.5,0000.0,0008.23,0003.48,0002.01
2022-05-15 11:59:00,,0829.4,5.01,0.00,29.5,28.5,00.0,38.5,31.2,11.4,0000.0,0008.52,0003.48,0001.99
